Location: Mount Cross
(36.6390°N, 79.4878°W)
Time: 17:42:30
(UTC+00:00)

Courier 1B Rocket - Pass Details

Date: 22 March 2023
Orbit: 920 x 1202 km, 28.2° (Epoch: 08 June)

Event Time Altitude Azimuth Distance (km) Brightness Sun altitude
Rises 01:21:04 0° 216° (SW) 3,770 8.3 -22.6°
Reaches altitude 10° 01:24:43 10° 199° (SSW) 2,765 7.4 -23.3°
Enters shadow 01:27:31 17° 175° (S) 2,259 6.7 -23.8°
Maximum altitude 01:29:04 18° 158° (SSE) 2,162 - -24.1°
Drops below altitude 10° 01:33:16 10° 116° (ESE) 2,661 - -24.9°
Sets 01:36:41 0° 98° (E) 3,577 - -25.5°
